cover

 

Get it on iTunes

Allen Watts

#Trackname / Key / BPM / Publish dateArtists, Remixers / Label
1 138 bpm, 2B / F# major, 2018-02-02, Trance,  1  5
2 138 bpm, 4A / F minor, 2018-01-15, Trance,  1  1
3 138 bpm, 2A / Eb minor, 2017-12-15, Trance,  4  1
4 138 bpm, 6A / G minor, 2017-12-15, Trance,  4  1
5 138 bpm, 10A / B minor, 2017-12-11, Trance,  0  51
6 138 bpm, 8B / C major, 2017-12-08, Trance,  23  2
7 138 bpm, 6A / G minor, 2017-11-24, Trance,  8  1
8 138 bpm, 10A / B minor, 2017-11-10, Trance,  0  33
9 138 bpm, 4A / F minor, 2017-11-10, Trance,  0  33
10 138 bpm, 4B / Ab major, 2017-11-03, Trance,  0  40
11 138 bpm, 5B / Eb major, 2017-10-30, Trance,  24  1
12 138 bpm, 4B / Ab major, 2017-10-27, Trance,  0  25
13 138 bpm, 2A / Eb minor, 2017-10-20, Trance,  0  10
14 140 bpm, 6A / G minor, 2017-09-04, Trance,  2  8
15 138 bpm, 7A / D minor, 2017-08-25, Trance,  0  35
16 140 bpm, 6B / Bb major, 2017-08-21, Trance,  0  15
17 138 bpm, 9A / E minor, 2017-08-18, Trance,  2  15
18 140 bpm, 6B / Bb major, 2017-08-18, Trance,  1  15
19 138 bpm, 2A / Eb minor, 2017-08-18, Trance,  0  20
20 138 bpm, 2A / Eb minor, 2017-08-04, Trance,  1  35
21 138 bpm, 7A / D minor, 2017-07-17, Trance,  10  1
22 138 bpm, 9A / E minor, 2017-07-10, Trance,  3  2
23 138 bpm, 9A / E minor, 2017-07-10, Trance,  8  2
24 138 bpm, 4B / Ab major, 2017-07-07, Trance,  0  20
25 140 bpm, 6B / Bb major, 2017-07-07, Trance,  2  2
26 140 bpm, 6B / Bb major, 2017-07-07, Trance,  0  2
27 138 bpm, 2A / Eb minor, 2017-07-07, Trance,  0  18
28 138 bpm, 2B / F# major, 2017-06-30, Trance,  0  100
29 140 bpm, 6A / G minor, 2017-06-30, Trance,  0  100
30 138 bpm, 2A / Eb minor, 2017-06-23, Trance,  3  15
31 138 bpm, 2A / Eb minor, 2017-06-23, Trance,  4  1
32 138 bpm, 2B / F# major, 2017-06-09, Trance,  0  20
33 138 bpm, 4B / Ab major, 2017-06-02, Trance,  0  40
34 138 bpm, 2A / Eb minor, 2017-05-12, Trance,  23  1
35 138 bpm, 7A / D minor, 2017-04-28, Trance,  1  25
36 138 bpm, 10B / D major, 2017-04-28, Trance,  0  15
37 140 bpm, 6A / G minor, 2017-04-28, Trance,  1  15
38 138 bpm, 2B / F# major, 2017-04-21, Trance,  1  40
39 138 bpm, 4B / Ab major, 2017-04-14, Trance,  1  20
40 138 bpm, 4B / Ab major, 2017-04-14, Trance,  0  40
41 138 bpm, 4B / Ab major, 2017-04-07, Trance,  2  25
42 138 bpm, 7A / D minor, 2017-03-17, Trance,  4  1
43 140 bpm, 6A / G minor, 2017-03-03, Trance,  22  1
44 140 bpm, 3A / Bb minor, 2017-03-03, Trance,  0  20
45 138 bpm, 4A / F minor, 2017-02-20, Trance,  0  25
46 138 bpm, 10B / D major, 2017-02-14, Trance,  2  5
47 138 bpm, 4B / Ab major, 2017-01-30, Trance,  19  1
48 138 bpm, 7B / F major, 2017-01-20, Trance,  0  15
49 138 bpm, 4A / F minor, 2017-01-13, Trance,  1  20
50 140 bpm, 3A / Bb minor, 2017-01-09, Trance,  15  1
51 138 bpm, 1A / Ab minor, 2017-01-02, Trance,  0  23
52 138 bpm, 6A / G minor, 2016-12-30, Trance,  0  17
53 138 bpm, 2B / F# major, 2016-12-16, Trance,  0  105
54 138 bpm, 2B / F# major, 2016-12-16, Trance,  0  105
55 140 bpm, 4A / F minor, 2016-12-12, Trance,  1  51
56 138 bpm, 2B / F# major, 2016-12-09, Trance,  1  10
57 138 bpm, 2B / F# major, 2016-12-02, Trance,  0  39
58 138 bpm, 4A / F minor, 2016-12-02, Trance,  0  40
59 138 bpm, 1A / Ab minor, 2016-11-28, Trance,  2  2
60 138 bpm, 6A / G minor, 2016-11-28, Trance,  5  1
61 138 bpm, 7B / F major, 2016-11-21, Trance,  13  1
62 138 bpm, 2B / F# major, 2016-11-04, Trance,  0  40
63 138 bpm, 2B / F# major, 2016-11-04, Trance,  0  100
64 140 bpm, 8A / A minor, 2016-11-04, Trance,  0  100
65 138 bpm, 6A / G minor, 2016-10-28, Trance,  1  55
66 138 bpm, 4A / F minor, 2016-10-28, Trance,  0  20
67 138 bpm, 3A / Bb minor, 2016-10-07, Trance,  0  10
68 140 bpm, 4B / Ab major, 2016-10-07, Trance,  0  10
69 140 bpm, 8A / A minor, 2016-09-30, Trance,  0  15
70 138 bpm, 4A / F minor, 2016-09-30, Trance,  0  15
71 138 bpm, 4A / F minor, 2016-09-30, Trance,  0  30
72 138 bpm, 3A / Bb minor, 2016-09-30, Trance,  0  20
73 138 bpm, 9A / E minor, 2016-09-23, Trance,  1  10
74 138 bpm, 3A / Bb minor, 2016-09-16, Trance,  0  10
75 140 bpm, 8A / A minor, 2016-09-02, Trance,  7  1
76 138 bpm, 7A / D minor, 2016-09-02, Trance,  0  10
77 138 bpm, 4A / F minor, 2016-08-29, Trance,  5  2
1
78 138 bpm, 4A / F minor, 2016-08-29, Trance,  2  2
79 138 bpm, 4A / F minor, 2016-08-19, Trance,  1  39
80 138 bpm, 4A / F minor, 2016-08-19, Trance,  0  40
81 136 bpm, 4B / Ab major, 2016-08-12, Trance,  0  40
82 138 bpm, 8A / A minor, 2016-08-05, Trance,  5  18
83 140 bpm, 8A / A minor, 2016-07-22, Trance,  2  36
84 138 bpm, 7A / D minor, 2016-07-22, Trance,  0  36
85 138 bpm, 4A / F minor, 2016-07-15, Trance,  0  30
86 138 bpm, 4A / F minor, 2016-07-08, Trance,  0  30
87 138 bpm, 7A / D minor, 2016-07-01, Trance,  0  15
88 138 bpm, 7A / D minor, 2016-06-24, Trance,  0  100
89 138 bpm, 2B / F# major, 2016-06-24, Trance,  0  100
90 138 bpm, 8A / A minor, 2016-06-24, Trance,  0  100
91 138 bpm, 7A / D minor, 2016-06-17, Trance,  13  1
92 138 bpm, 4A / F minor, 2016-06-10, Trance,  0  25
93 138 bpm, 2B / F# major, 2016-06-10, Trance,  0  48
94 138 bpm, 3A / Bb minor, 2016-06-03, Trance,  0  15
95 138 bpm, 3A / Bb minor, 2016-05-27, Trance,  2  20
96 138 bpm, 2B / F# major, 2016-05-20, Trance,  1  10
97 138 bpm, 4A / F minor, 2016-05-13, Trance,  0  30
98 138 bpm, 2B / F# major, 2016-05-13, Trance,  0  40
99 138 bpm, 8A / A minor, 2016-04-29, Trance,  2  15
100 138 bpm, 9A / E minor, 2016-04-29, Trance,  0  20
Please wait...